| time (UTC) | temp F | wind direction | speed knots | gust knots | rain 1hr in | rain 24hr in | rain mn in | humidity % | barometer mb |
| 20260505193002 | 57 | 211 | 0.0 | 0.0 | 0.00 | 0.00 | 0.00 | 56 | 1011.7 |
| 20260505192502 | 58 | 211 | 0.0 | 0.0 | 0.00 | 0.00 | 0.00 | 56 | 1011.7 |
| 20260505192002 | 58 | 211 | 0.0 | 0.0 | 0.00 | 0.00 | 0.00 | 55 | 1011.8 |
| 20260505191502 | 58 | 214 | 0.0 | 0.0 | 0.00 | 0.00 | 0.00 | 56 | 1011.7 |
| 20260505191002 | 58 | 257 | 0.0 | 1.7 | 0.00 | 0.00 | 0.00 | 55 | 1011.7 |
| 20260505190502 | 58 | 258 | 0.9 | 1.7 | 0.00 | 0.00 | 0.00 | 54 | 1011.7 |
| 20260505190003 | 58 | 293 | 0.0 | 2.6 | 0.00 | 0.00 | 0.00 | 53 | 1011.7 |
| 20260505185502 | 58 | 36 | 0.9 | 2.6 | 0.00 | 0.00 | 0.00 | 53 | 1011.7 |
| 20260505185002 | 58 | 265 | 0.9 | 2.6 | 0.00 | 0.00 | 0.00 | 53 | 1011.7 |
| 20260505184502 | 58 | 198 | 0.0 | 1.7 | 0.00 | 0.00 | 0.00 | 53 | 1011.6 |
| 20260505184002 | 58 | 303 | 0.9 | 1.7 | 0.00 | 0.00 | 0.00 | 53 | 1011.6 |
| 20260505183502 | 58 | 259 | 0.9 | 1.7 | 0.00 | 0.00 | 0.00 | 53 | 1011.6 |
| 20260505183002 | 59 | 331 | 1.7 | 2.6 | 0.00 | 0.00 | 0.00 | 52 | 1011.5 |
| 20260505182502 | 58 | 152 | 2.6 | 3.5 | 0.00 | 0.00 | 0.00 | 52 | 1011.6 |
| 20260505182002 | 59 | 188 | 1.7 | 1.7 | 0.00 | 0.00 | 0.00 | 52 | 1011.6 |
| 20260505181502 | 59 | 217 | 0.9 | 1.7 | 0.00 | 0.00 | 0.00 | 52 | 1011.6 |
| 20260505181002 | 59 | 236 | 0.9 | 1.7 | 0.00 | 0.00 | 0.00 | 52 | 1011.6 |
| 20260505180503 | 59 | 185 | 1.7 | 3.5 | 0.00 | 0.00 | 0.00 | 52 | 1011.6 |
| 20260505180002 | 59 | 234 | 0.9 | 2.6 | 0.00 | 0.00 | 0.00 | 52 | 1011.6 |
| 20260505175502 | 59 | 325 | 0.9 | 3.5 | 0.00 | 0.00 | 0.00 | 52 | 1011.5 |
| 20260505175002 | 59 | 226 | 0.9 | 3.5 | 0.00 | 0.00 | 0.00 | 51 | 1011.6 |
| 20260505174502 | 59 | 94 | 0.0 | 3.5 | 0.00 | 0.00 | 0.00 | 51 | 1011.6 |
| 20260505174002 | 60 | 232 | 0.9 | 1.7 | 0.00 | 0.00 | 0.00 | 51 | 1011.6 |
| 20260505173502 | 60 | 336 | 0.9 | 3.5 | 0.00 | 0.00 | 0.00 | 50 | 1011.7 |
| 20260505173002 | 60 | 53 | 2.6 | 3.5 | 0.00 | 0.00 | 0.00 | 50 | 1011.6 |
| 20260505172502 | 60 | 79 | 2.6 | 4.3 | 0.00 | 0.00 | 0.00 | 49 | 1011.7 |
| 20260505172002 | 60 | 154 | 1.7 | 3.5 | 0.00 | 0.00 | 0.00 | 49 | 1011.6 |
| 20260505171502 | 60 | 122 | 1.7 | 3.5 | 0.00 | 0.00 | 0.00 | 49 | 1011.6 |
| 20260505171002 | 60 | 324 | 0.9 | 3.5 | 0.00 | 0.00 | 0.00 | 49 | 1011.6 |
| 20260505170502 | 60 | 199 | 1.7 | 2.6 | 0.00 | 0.00 | 0.00 | 49 | 1011.7 |
| 20260505170002 | 61 | 290 | 0.9 | 2.6 | 0.00 | 0.00 | 0.00 | 49 | 1011.6 |
| 20260505165502 | 61 | 232 | 1.7 | 2.6 | 0.00 | 0.00 | 0.00 | 49 | 1011.7 |
| 20260505165002 | 61 | 259 | 0.9 | 3.5 | 0.00 | 0.00 | 0.00 | 50 | 1011.6 |
| 20260505164502 | 61 | 253 | 0.0 | 1.7 | 0.00 | 0.00 | 0.00 | 50 | 1011.7 |
| 20260505164002 | 61 | 31 | 1.7 | 3.5 | 0.00 | 0.00 | 0.00 | 48 | 1011.5 |
| 20260505163504 | 61 | 249 | 0.9 | 2.6 | 0.00 | 0.00 | 0.00 | 51 | 1011.6 |
| 20260505163002 | 61 | 44 | 0.9 | 2.6 | 0.00 | 0.00 | 0.00 | 49 | 1011.5 |
| 20260505162502 | 61 | 228 | 0.9 | 1.7 | 0.00 | 0.00 | 0.00 | 49 | 1011.5 |
| 20260505162002 | 61 | 97 | 0.9 | 3.5 | 0.00 | 0.00 | 0.00 | 49 | 1011.7 |
| 20260505161502 | 61 | 309 | 0.9 | 2.6 | 0.00 | 0.00 | 0.00 | 49 | 1011.7 |
| 20260505161002 | 61 | 118 | 2.6 | 3.5 | 0.00 | 0.00 | 0.00 | 47 | 1011.7 |
| 20260505160502 | 62 | 204 | 0.9 | 3.5 | 0.00 | 0.00 | 0.00 | 48 | 1011.5 |
| 20260505153002 | 61 | 66 | 0.0 | 2.6 | 0.00 | 0.00 | 0.00 | 49 | 1011.8 |
| 20260505152503 | 61 | 233 | 0.9 | 2.6 | 0.00 | 0.00 | 0.00 | 48 | 1011.7 |
| 20260505152002 | 61 | 350 | 1.7 | 2.6 | 0.00 | 0.00 | 0.00 | 48 | 1011.8 |
| 20260505151502 | 61 | 300 | 0.9 | 1.7 | 0.00 | 0.00 | 0.00 | 49 | 1011.7 |
| 20260505151002 | 61 | 248 | 0.0 | 4.3 | 0.00 | 0.00 | 0.00 | 49 | 1011.7 |
| 20260505150502 | 61 | 249 | 0.0 | 5.2 | 0.00 | 0.00 | 0.00 | 50 | 1011.8 |
| 20260505140502 | 62 | 216 | 0.9 | 1.7 | 0.00 | 0.00 | 0.00 | 50 | 1012.0 |
| 20260505125002 | 63 | 117 | 1.7 | 2.6 | 0.00 | 0.00 | 0.00 | 48 | 1012.2 |
| 20260505124502 | 64 | 280 | 1.7 | 3.5 | 0.00 | 0.00 | 0.00 | 49 | 1012.3 |
| 20260505124002 | 63 | 290 | 0.0 | 2.6 | 0.00 | 0.00 | 0.00 | 52 | 1012.4 |
| 20260505123502 | 64 | 247 | 0.9 | 2.6 | 0.00 | 0.00 | 0.00 | 50 | 1012.2 |
| 20260505123002 | 64 | 270 | 0.9 | 4.3 | 0.00 | 0.00 | 0.00 | 50 | 1012.3 |
| 20260505122503 | 63 | 264 | 0.0 | 1.7 | 0.00 | 0.00 | 0.00 | 50 | 1012.3 |
| 20260505122003 | 62 | 280 | 0.9 | 3.5 | 0.00 | 0.00 | 0.00 | 50 | 1012.2 |
| 20260505121502 | 62 | 257 | 0.0 | 1.7 | 0.00 | 0.00 | 0.00 | 52 | 1012.3 |
| 20260505121002 | 62 | 27 | 2.6 | 5.2 | 0.00 | 0.00 | 0.00 | 49 | 1012.3 |
| 20260505120502 | 64 | 86 | 4.3 | 7.8 | 0.00 | 0.00 | 0.00 | 47 | 1012.5 |
| 20260505120002 | 63 | 323 | 0.9 | 1.7 | 0.00 | 0.00 | 0.00 | 50 | 1012.3 |
| 20260505115502 | 63 | 105 | 2.6 | 3.5 | 0.00 | 0.00 | 0.00 | 50 | 1012.3 |
| 20260505115002 | 63 | 98 | 2.6 | 4.3 | 0.00 | 0.00 | 0.00 | 50 | 1012.3 |
| 20260505114502 | 63 | 195 | 1.7 | 3.5 | 0.00 | 0.00 | 0.00 | 51 | 1012.5 |
| 20260505114002 | 63 | 353 | 1.7 | 1.7 | 0.00 | 0.00 | 0.00 | 49 | 1012.2 |
| 20260505113502 | 63 | 110 | 0.9 | 5.2 | 0.00 | 0.00 | 0.00 | 49 | 1012.4 |
| 20260505113002 | 62 | 261 | 0.9 | 3.5 | 0.00 | 0.00 | 0.00 | 51 | 1012.6 |
| 20260505112502 | 63 | 182 | 0.9 | 3.5 | 0.00 | 0.00 | 0.00 | 48 | 1012.4 |
| 20260505112002 | 64 | 71 | 2.6 | 5.2 | 0.00 | 0.00 | 0.00 | 48 | 1012.5 |
| 20260505111502 | 64 | 286 | 0.0 | 4.3 | 0.00 | 0.00 | 0.00 | 52 | 1012.4 |
| 20260505111002 | 64 | 242 | 0.0 | 3.5 | 0.00 | 0.00 | 0.00 | 52 | 1012.6 |
| 20260505110502 | 64 | 276 | 2.6 | 3.5 | 0.00 | 0.00 | 0.00 | 50 | 1012.6 |
| 20260505102002 | 62 | 263 | 0.9 | 2.6 | 0.00 | 0.00 | 0.00 | 58 | 1013.0 |
| 20260505101503 | 62 | 304 | 0.9 | 3.5 | 0.00 | 0.00 | 0.00 | 57 | 1013.0 |
| 20260505101002 | 62 | 286 | 0.0 | 3.5 | 0.00 | 0.00 | 0.00 | 59 | 1013.1 |
| 20260505100502 | 64 | 288 | 1.7 | 4.3 | 0.00 | 0.00 | 0.00 | 53 | 1013.3 |
| 20260505100002 | 63 | 270 | 0.9 | 1.7 | 0.00 | 0.00 | 0.00 | 56 | 1013.0 |
| 20260505095502 | 61 | 240 | 0.9 | 3.5 | 0.00 | 0.00 | 0.00 | 59 | 1013.4 |
| 20260505095002 | 60 | 270 | 0.0 | 2.6 | 0.00 | 0.00 | 0.00 | 62 | 1013.1 |
| 20260505094502 | 61 | 80 | 1.7 | 3.5 | 0.00 | 0.00 | 0.00 | 60 | 1013.3 |
| 20260505094002 | 62 | 262 | 0.9 | 3.5 | 0.00 | 0.00 | 0.00 | 59 | 1013.3 |
| 20260505093502 | 61 | 273 | 1.7 | 2.6 | 0.00 | 0.00 | 0.00 | 63 | 1013.4 |
| 20260505093002 | 60 | 260 | 0.9 | 3.5 | 0.00 | 0.00 | 0.00 | 63 | 1013.2 |
| 20260505092502 | 59 | 54 | 1.7 | 3.5 | 0.00 | 0.00 | 0.00 | 63 | 1013.3 |
| 20260505092002 | 58 | 251 | 0.9 | 1.7 | 0.00 | 0.00 | 0.00 | 68 | 1013.2 |
| 20260505091502 | 58 | 232 | 0.9 | 2.6 | 0.00 | 0.00 | 0.00 | 68 | 1013.5 |
| 20260505091002 | 58 | 280 | 0.9 | 3.5 | 0.00 | 0.00 | 0.00 | 67 | 1013.4 |
| 20260505090502 | 58 | 63 | 1.7 | 5.2 | 0.00 | 0.00 | 0.00 | 65 | 1013.4 |
| 20260505090002 | 57 | 285 | 0.9 | 1.7 | 0.00 | 0.00 | 0.00 | 69 | 1013.5 |
| 20260505085502 | 57 | 241 | 0.0 | 1.7 | 0.00 | 0.00 | 0.00 | 69 | 1013.5 |
| 20260505085002 | 56 | 195 | 1.7 | 4.3 | 0.00 | 0.00 | 0.00 | 69 | 1013.6 |
| 20260505084502 | 56 | 37 | 2.6 | 4.3 | 0.00 | 0.00 | 0.00 | 70 | 1013.6 |
| 20260505084002 | 55 | 26 | 1.7 | 4.3 | 0.00 | 0.00 | 0.00 | 72 | 1013.6 |
| 20260505083502 | 55 | 340 | 0.9 | 4.3 | 0.00 | 0.00 | 0.00 | 71 | 1013.8 |
| 20260505083002 | 56 | 30 | 1.7 | 2.6 | 0.00 | 0.00 | 0.00 | 71 | 1013.5 |
| 20260505082502 | 56 | 253 | 0.9 | 2.6 | 0.00 | 0.00 | 0.00 | 71 | 1013.6 |
| 20260505082002 | 56 | 270 | 0.0 | 1.7 | 0.00 | 0.00 | 0.00 | 71 | 1013.5 |
| 20260505081502 | 56 | 260 | 0.0 | 1.7 | 0.00 | 0.00 | 0.00 | 72 | 1013.8 |
| 20260505081002 | 56 | 102 | 0.9 | 2.6 | 0.00 | 0.00 | 0.00 | 73 | 1013.7 |
| 20260505080502 | 56 | 284 | 0.0 | 2.6 | 0.00 | 0.00 | 0.00 | 73 | 1013.5 |
| 20260505080002 | 55 | 274 | 0.0 | 1.7 | 0.00 | 0.00 | 0.00 | 75 | 1013.5 |
| 20260505075502 | 55 | 356 | 1.7 | 3.5 | 0.00 | 0.00 | 0.00 | 74 | 1013.5 |
| 20260505075002 | 55 | 77 | 1.7 | 2.6 | 0.00 | 0.00 | 0.00 | 75 | 1013.5 |
| 20260505074502 | 55 | 270 | 0.9 | 4.3 | 0.00 | 0.00 | 0.00 | 74 | 1013.4 |
| 20260505074002 | 55 | 265 | 0.9 | 2.6 | 0.00 | 0.00 | 0.00 | 76 | 1013.3 |
| 20260505073502 | 55 | 285 | 0.0 | 1.7 | 0.00 | 0.00 | 0.00 | 76 | 1013.4 |
| 20260505073002 | 55 | 277 | 0.9 | 2.6 | 0.00 | 0.00 | 0.00 | 76 | 1013.3 |
| 20260505072503 | 56 | 264 | 0.9 | 1.7 | 0.00 | 0.00 | 0.00 | 76 | 1013.5 |
| 20260505072002 | 56 | 258 | 0.0 | 0.0 | 0.00 | 0.00 | 0.00 | 76 | 1013.4 |
| 20260505071502 | 55 | 279 | 0.9 | 2.6 | 0.00 | 0.00 | 0.00 | 76 | 1013.4 |
| 20260505071002 | 55 | 276 | 0.0 | 1.7 | 0.00 | 0.00 | 0.00 | 77 | 1013.5 |
| 20260505070502 | 55 | 285 | 0.0 | 4.3 | 0.00 | 0.00 | 0.00 | 77 | 1013.6 |
| 20260505070002 | 55 | 325 | 2.6 | 3.5 | 0.00 | 0.00 | 0.00 | 77 | 1013.6 |
| 20260505065502 | 55 | 234 | 0.0 | 1.7 | 0.00 | 0.00 | 0.00 | 77 | 1013.6 |
| 20260505065002 | 55 | 231 | 0.9 | 2.6 | 0.00 | 0.00 | 0.00 | 79 | 1013.8 |
| 20260505064502 | 54 | 285 | 0.0 | 0.0 | 0.00 | 0.00 | 0.00 | 79 | 1013.6 |
| 20260505064002 | 54 | 286 | 0.0 | 0.0 | 0.00 | 0.00 | 0.00 | 79 | 1013.7 |
| 20260505063503 | 54 | 230 | 0.0 | 1.7 | 0.00 | 0.00 | 0.00 | 80 | 1013.7 |
| 20260505063002 | 54 | 249 | 0.0 | 0.0 | 0.00 | 0.00 | 0.00 | 79 | 1013.6 |
| 20260505062502 | 54 | 330 | 0.9 | 3.5 | 0.00 | 0.00 | 0.00 | 79 | 1013.6 |
| 20260505062002 | 54 | 344 | 0.9 | 2.6 | 0.00 | 0.00 | 0.00 | 80 | 1013.8 |
| 20260505061502 | 54 | 295 | 0.0 | 2.6 | 0.00 | 0.00 | 0.00 | 81 | 1013.7 |
| 20260505061002 | 54 | 290 | 0.9 | 2.6 | 0.00 | 0.00 | 0.00 | 82 | 1013.7 |
| 20260505060503 | 54 | 40 | 1.7 | 3.5 | 0.00 | 0.00 | 0.00 | 83 | 1013.6 |
| 20260505060002 | 53 | 316 | 0.9 | 1.7 | 0.00 | 0.00 | 0.00 | 84 | 1013.5 |
| 20260505055502 | 53 | 81 | 0.0 | 2.6 | 0.00 | 0.00 | 0.00 | 84 | 1013.7 |
| 20260505055003 | 53 | 311 | 0.0 | 1.7 | 0.00 | 0.00 | 0.00 | 84 | 1013.6 |
| 20260505054502 | 53 | 308 | 0.0 | 1.7 | 0.00 | 0.00 | 0.00 | 84 | 1013.8 |
| 20260505054002 | 53 | 301 | 0.0 | 1.7 | 0.00 | 0.00 | 0.00 | 85 | 1013.5 |
| 20260505053502 | 53 | 305 | 1.7 | 2.6 | 0.00 | 0.00 | 0.00 | 85 | 1013.8 |
| 20260505053002 | 53 | 302 | 0.0 | 1.7 | 0.00 | 0.00 | 0.00 | 85 | 1013.7 |
| 20260505052502 | 53 | 329 | 0.0 | 1.7 | 0.00 | 0.00 | 0.00 | 85 | 1013.8 |
| 20260505052002 | 53 | 298 | 0.0 | 2.6 | 0.00 | 0.00 | 0.00 | 85 | 1013.8 |
| 20260505051502 | 53 | 304 | 0.9 | 1.7 | 0.00 | 0.00 | 0.00 | 85 | 1013.8 |
| 20260505051003 | 53 | 300 | 0.0 | 1.7 | 0.00 | 0.00 | 0.00 | 85 | 1013.6 |
| 20260505050502 | 53 | 310 | 0.9 | 2.6 | 0.00 | 0.00 | 0.00 | 85 | 1013.7 |
| 20260505041502 | 53 | 254 | 0.9 | 1.7 | 0.00 | 0.00 | 0.00 | 87 | 1013.8 |
| 20260505041002 | 53 | 293 | 0.0 | 0.0 | 0.00 | 0.00 | 0.00 | 87 | 1013.8 |
| 20260505040502 | 53 | 267 | 0.9 | 1.7 | 0.00 | 0.00 | 0.00 | 87 | 1013.7 |
| 20260505040003 | 53 | 299 | 0.0 | 0.0 | 0.00 | 0.00 | 0.00 | 87 | 1013.8 |
| 20260505035502 | 53 | 265 | 0.9 | 1.7 | 0.00 | 0.00 | 0.00 | 87 | 1013.7 |
| 20260505035002 | 53 | 211 | 0.0 | 2.6 | 0.00 | 0.00 | 0.00 | 87 | 1013.8 |
| 20260505034502 | 53 | 206 | 0.9 | 2.6 | 0.00 | 0.00 | 0.00 | 87 | 1013.8 |
| 20260505034002 | 53 | 322 | 0.9 | 3.5 | 0.00 | 0.00 | 0.00 | 87 | 1013.8 |
| 20260505033502 | 53 | 309 | 0.9 | 1.7 | 0.00 | 0.00 | 0.00 | 87 | 1013.8 |
| 20260505033002 | 53 | 210 | 0.9 | 2.6 | 0.00 | 0.00 | 0.00 | 86 | 1013.8 |
| 20260505032502 | 53 | 219 | 0.9 | 4.3 | 0.00 | 0.00 | 0.00 | 86 | 1013.7 |
| 20260505032002 | 53 | 327 | 0.9 | 3.5 | 0.00 | 0.00 | 0.00 | 86 | 1013.7 |
| 20260505031502 | 53 | 271 | 0.9 | 2.6 | 0.00 | 0.00 | 0.00 | 87 | 1013.8 |
| 20260505031002 | 53 | 303 | 0.0 | 1.7 | 0.00 | 0.00 | 0.00 | 87 | 1013.8 |
| 20260505030502 | 53 | 343 | 1.7 | 2.6 | 0.00 | 0.00 | 0.00 | 87 | 1013.9 |
| 20260505030002 | 53 | 321 | 0.9 | 1.7 | 0.00 | 0.00 | 0.00 | 87 | 1013.9 |
| 20260505025502 | 53 | 308 | 0.9 | 2.6 | 0.00 | 0.00 | 0.00 | 88 | 1013.8 |
| 20260505025002 | 53 | 199 | 0.9 | 2.6 | 0.00 | 0.00 | 0.00 | 88 | 1013.9 |
| 20260505024503 | 53 | 300 | 0.0 | 1.7 | 0.00 | 0.00 | 0.00 | 88 | 1013.9 |
| 20260505024002 | 53 | 228 | 0.0 | 3.5 | 0.00 | 0.00 | 0.00 | 87 | 1013.8 |
| 20260505023502 | 53 | 192 | 1.7 | 3.5 | 0.00 | 0.00 | 0.00 | 87 | 1014.0 |
| 20260505023003 | 53 | 340 | 1.7 | 3.5 | 0.00 | 0.00 | 0.00 | 86 | 1013.8 |
| 20260505022502 | 53 | 229 | 0.0 | 0.0 | 0.00 | 0.00 | 0.00 | 86 | 1013.9 |
| 20260505022002 | 53 | 259 | 0.0 | 0.0 | 0.00 | 0.00 | 0.00 | 86 | 1013.8 |
| 20260505021502 | 53 | 212 | 0.9 | 2.6 | 0.00 | 0.00 | 0.00 | 86 | 1014.0 |
| 20260505021002 | 53 | 325 | 1.7 | 2.6 | 0.00 | 0.00 | 0.00 | 86 | 1014.0 |
| 20260505020502 | 53 | 216 | 0.0 | 1.7 | 0.00 | 0.00 | 0.00 | 86 | 1014.2 |
| 20260505020002 | 53 | 212 | 1.7 | 2.6 | 0.00 | 0.00 | 0.00 | 86 | 1014.1 |
| 20260505015502 | 53 | 217 | 0.0 | 2.6 | 0.00 | 0.00 | 0.00 | 86 | 1013.9 |
| 20260505015002 | 53 | 302 | 0.9 | 1.7 | 0.00 | 0.00 | 0.00 | 86 | 1014.1 |
| 20260505014502 | 53 | 108 | 0.9 | 2.6 | 0.00 | 0.00 | 0.00 | 86 | 1014.1 |
| 20260505014002 | 53 | 346 | 2.6 | 3.5 | 0.00 | 0.00 | 0.00 | 86 | 1014.2 |
| 20260505013502 | 53 | 61 | 2.6 | 3.5 | 0.00 | 0.00 | 0.00 | 85 | 1014.3 |
| 20260505013002 | 54 | 131 | 2.6 | 3.5 | 0.00 | 0.00 | 0.00 | 85 | 1014.2 |
| 20260505012502 | 54 | 0 | 2.6 | 3.5 | 0.00 | 0.00 | 0.00 | 85 | 1014.1 |
| 20260505012002 | 54 | 47 | 2.6 | 4.3 | 0.00 | 0.00 | 0.00 | 85 | 1014.3 |
| 20260505011502 | 54 | 38 | 4.3 | 6.1 | 0.00 | 0.00 | 0.00 | 85 | 1014.4 |
| 20260505011002 | 54 | 298 | 0.9 | 1.7 | 0.00 | 0.00 | 0.00 | 85 | 1014.4 |
| 20260505010502 | 54 | 5 | 2.6 | 3.5 | 0.00 | 0.00 | 0.00 | 85 | 1014.4 |
| 20260505010003 | 54 | 259 | 1.7 | 2.6 | 0.00 | 0.00 | 0.00 | 85 | 1014.4 |
| 20260505005502 | 54 | 48 | 1.7 | 3.5 | 0.00 | 0.00 | 0.00 | 85 | 1014.5 |
| 20260505005002 | 54 | 100 | 1.7 | 5.2 | 0.00 | 0.00 | 0.00 | 85 | 1014.6 |
| 20260505004502 | 54 | 109 | 3.5 | 4.3 | 0.00 | 0.00 | 0.00 | 85 | 1014.6 |
| 20260505004002 | 54 | 75 | 3.5 | 4.3 | 0.00 | 0.00 | 0.00 | 85 | 1014.5 |
| 20260505003502 | 54 | 213 | 0.0 | 3.5 | 0.00 | 0.00 | 0.00 | 85 | 1014.6 |
| 20260505003002 | 54 | 258 | 1.7 | 2.6 | 0.00 | 0.00 | 0.00 | 85 | 1014.6 |
| 20260505002502 | 54 | 217 | 0.9 | 2.6 | 0.00 | 0.00 | 0.00 | 85 | 1014.5 |
| 20260505002003 | 54 | 171 | 0.9 | 2.6 | 0.00 | 0.00 | 0.00 | 85 | 1014.4 |
| 20260505001502 | 55 | 288 | 0.0 | 2.6 | 0.00 | 0.00 | 0.00 | 85 | 1014.6 |
| 20260505001002 | 55 | 292 | 0.9 | 3.5 | 0.00 | 0.00 | 0.00 | 85 | 1014.5 |
| 20260505000502 | 55 | 195 | 0.9 | 4.3 | 0.00 | 0.00 | 0.00 | 84 | 1014.9 |
| 20260505000003 | 55 | 209 | 0.9 | 2.6 | 0.00 | 0.00 | 0.00 | 84 | 1014.6 |
| 20260504235502 | 56 | 95 | 0.9 | 4.3 | 0.00 | 0.00 | 0.00 | 82 | 1014.5 |
| 20260504235002 | 56 | 267 | 0.0 | 2.6 | 0.00 | 0.00 | 0.00 | 79 | 1014.5 |
| 20260504234502 | 56 | 289 | 2.6 | 3.5 | 0.00 | 0.00 | 0.00 | 78 | 1014.7 |
| 20260504234002 | 56 | 318 | 0.9 | 3.5 | 0.00 | 0.00 | 0.00 | 78 | 1014.5 |
| 20260504233502 | 56 | 343 | 0.9 | 2.6 | 0.00 | 0.00 | 0.00 | 78 | 1014.6 |
| 20260504233002 | 56 | 22 | 1.7 | 2.6 | 0.00 | 0.00 | 0.00 | 77 | 1014.6 |
| 20260504232502 | 56 | 39 | 1.7 | 2.6 | 0.00 | 0.00 | 0.00 | 77 | 1014.7 |
| 20260504232003 | 56 | 334 | 2.6 | 3.5 | 0.00 | 0.00 | 0.00 | 77 | 1014.7 |
| 20260504231503 | 56 | 5 | 1.7 | 2.6 | 0.00 | 0.00 | 0.00 | 77 | 1014.6 |
| 20260504231002 | 56 | 2 | 0.9 | 3.5 | 0.00 | 0.00 | 0.00 | 77 | 1014.9 |
| 20260504230502 | 56 | 301 | 0.0 | 4.3 | 0.00 | 0.00 | 0.00 | 77 | 1014.9 |
| 20260504230002 | 56 | 293 | 0.9 | 1.7 | 0.00 | 0.00 | 0.00 | 77 | 1015.0 |
| 20260504225502 | 56 | 296 | 1.7 | 3.5 | 0.00 | 0.00 | 0.00 | 77 | 1015.0 |
| 20260504225002 | 56 | 329 | 0.9 | 2.6 | 0.00 | 0.00 | 0.00 | 78 | 1014.9 |
| 20260504224502 | 56 | 299 | 0.0 | 0.0 | 0.00 | 0.00 | 0.00 | 78 | 1014.6 |
| 20260504224002 | 56 | 303 | 0.0 | 2.6 | 0.00 | 0.00 | 0.00 | 78 | 1014.7 |
| 20260504223502 | 56 | 290 | 0.0 | 0.0 | 0.00 | 0.00 | 0.00 | 78 | 1015.0 |
| 20260504223002 | 56 | 254 | 0.0 | 0.0 | 0.00 | 0.00 | 0.00 | 78 | 1014.9 |
| 20260504222502 | 56 | 252 | 0.0 | 0.0 | 0.00 | 0.00 | 0.00 | 78 | 1015.0 |
| 20260504222002 | 56 | 246 | 0.0 | 0.0 | 0.00 | 0.00 | 0.00 | 78 | 1015.1 |
| 20260504221502 | 56 | 243 | 0.0 | 1.7 | 0.00 | 0.00 | 0.00 | 78 | 1014.9 |
| 20260504221002 | 56 | 245 | 0.9 | 2.6 | 0.00 | 0.00 | 0.00 | 78 | 1014.9 |
| 20260504220502 | 57 | 277 | 0.0 | 1.7 | 0.00 | 0.00 | 0.00 | 78 | 1015.0 |
| 20260504220002 | 57 | 295 | 0.9 | 2.6 | 0.00 | 0.00 | 0.00 | 78 | 1015.0 |
| 20260504215502 | 57 | 290 | 0.0 | 3.5 | 0.00 | 0.00 | 0.00 | 78 | 1015.0 |
| 20260504215002 | 57 | 256 | 0.9 | 1.7 | 0.00 | 0.00 | 0.00 | 79 | 1014.7 |
| 20260504214502 | 57 | 304 | 0.9 | 3.5 | 0.00 | 0.00 | 0.00 | 80 | 1015.1 |
| 20260504214002 | 57 | 56 | 0.0 | 0.0 | 0.00 | 0.00 | 0.00 | 81 | 1015.1 |
| 20260504213502 | 57 | 80 | 0.0 | 3.5 | 0.00 | 0.00 | 0.00 | 81 | 1015.0 |
| 20260504213002 | 57 | 204 | 0.9 | 2.6 | 0.00 | 0.00 | 0.00 | 81 | 1014.9 |
| 20260504212502 | 57 | 235 | 0.9 | 1.7 | 0.00 | 0.00 | 0.00 | 81 | 1014.7 |
| 20260504212002 | 57 | 308 | 0.9 | 1.7 | 0.00 | 0.00 | 0.00 | 81 | 1014.7 |
| 20260504211502 | 57 | 313 | 0.9 | 2.6 | 0.00 | 0.00 | 0.00 | 81 | 1015.0 |
| 20260504211002 | 57 | 345 | 1.7 | 2.6 | 0.00 | 0.00 | 0.00 | 80 | 1014.9 |
| 20260504210502 | 58 | 213 | 0.0 | 2.6 | 0.00 | 0.00 | 0.00 | 79 | 1015.1 |
| 20260504210003 | 58 | 249 | 0.9 | 1.7 | 0.00 | 0.00 | 0.00 | 79 | 1015.1 |
| 20260504205502 | 58 | 237 | 0.9 | 2.6 | 0.00 | 0.00 | 0.00 | 79 | 1015.2 |
| 20260504205005 | 58 | 281 | 0.9 | 1.7 | 0.00 | 0.00 | 0.00 | 78 | 1015.0 |
| 20260504204502 | 58 | 200 | 0.9 | 2.6 | 0.00 | 0.00 | 0.00 | 76 | 1015.0 |
| 20260504204002 | 58 | 259 | 0.0 | 1.7 | 0.00 | 0.00 | 0.00 | 76 | 1015.0 |
| 20260504203502 | 58 | 65 | 2.6 | 2.6 | 0.00 | 0.00 | 0.00 | 76 | 1014.9 |
| 20260504203002 | 58 | 298 | 0.0 | 1.7 | 0.00 | 0.00 | 0.00 | 76 | 1015.1 |
| 20260504202502 | 58 | 330 | 1.7 | 2.6 | 0.00 | 0.00 | 0.00 | 76 | 1014.9 |
| 20260504202002 | 58 | 231 | 0.0 | 0.0 | 0.00 | 0.00 | 0.00 | 76 | 1014.9 |
| 20260504201504 | 58 | 216 | 0.9 | 3.5 | 0.00 | 0.00 | 0.00 | 76 | 1015.0 |
| 20260504201002 | 58 | 318 | 0.0 | 2.6 | 0.00 | 0.00 | 0.00 | 75 | 1014.9 |
| 20260504200502 | 58 | 50 | 2.6 | 3.5 | 0.00 | 0.00 | 0.00 | 75 | 1014.9 |
| 20260504200003 | 58 | 304 | 0.9 | 1.7 | 0.00 | 0.00 | 0.00 | 75 | 1014.9 |
| 20260504195503 | 58 | 225 | 0.0 | 1.7 | 0.00 | 0.00 | 0.00 | 76 | 1014.7 |
| 20260504195002 | 58 | 201 | 0.9 | 1.7 | 0.00 | 0.00 | 0.00 | 76 | 1014.7 |
| 20260504194502 | 58 | 219 | 0.0 | 0.0 | 0.00 | 0.00 | 0.00 | 76 | 1014.6 |
| 20260504194002 | 58 | 284 | 0.0 | 0.0 | 0.00 | 0.00 | 0.00 | 75 | 1014.6 |
| 20260504193502 | 58 | 254 | 0.9 | 1.7 | 0.00 | 0.00 | 0.00 | 75 | 1014.7 |